Location: Byhalia Creek
(34.8270°N, 89.8040°W)
Time: 16:46:35
(UTC+00:00)

Cosmos 858 Rocket - Pass Details

Date: 22 April 2026
Orbit: 752 x 769 km, 74.1° (Epoch: 9 May)

Event Time Altitude Azimuth Distance (km) Brightness Sun altitude
Rises 10:35:00 0° 339° (NNW) 3,215 7.7 -9.3°
Reaches altitude 10° 10:37:23 10° 337° (NNW) 2,284 7.0 -8.9°
Maximum altitude 10:42:30 65° 256° (WSW) 823 4.4 -7.9°
Drops below altitude 10° 10:47:35 10° 175° (S) 2,264 6.8 -6.9°
Sets 10:49:56 0° 172° (S) 3,184 7.6 -6.5°
